,,,PA_Meas_PMT16A,,PR_Meas_QMR101_102,,RH_Meas_QMH101,,SR_Meas_QMS101,,TA_Meas_QMH101,,GenWind,,GenWind,
date,time,status,PA,status,PR,status,RH,status,SR,status,TA,status,DirAvg,status,SpdAvg,
2011-11-05, 00:00:05,VALID,998.927,VALID,0,VALID,93.9206,VALID,0,VALID,23.4475,VALID,240,VALID,0.362891,
2011-11-05, 00:01:05,VALID,998.895,VALID,0,VALID,93.913,VALID,0,VALID,23.4866,VALID,240,VALID,0.292188,
2011-11-05, 00:02:05,VALID,998.872,VALID,0,VALID,93.9283,VALID,0,VALID,23.4671,VALID,240,VALID,0.2625,
2011-11-05, 00:03:05,VALID,998.827,VALID,0,VALID,93.913,VALID,0,VALID,23.4263,VALID,240,VALID,0.319531,
2011-11-05, 00:04:05,VALID,998.807,VALID,0,VALID,93.9511,VALID,0,VALID,23.4475,VALID,239,VALID,0.387109,
2011-11-05, 00:05:05,VALID,998.783,VALID,0,VALID,93.9435,VALID,0,VALID,23.4475,VALID,239,VALID,0.288281,
2011-11-05, 00:06:05,VALID,998.757,VALID,0,VALID,93.9359,VALID,0,VALID,23.4475,VALID,239,VALID,0.457812,
2011-11-05, 00:07:05,VALID,998.706,VALID,0,VALID,93.9206,VALID,0,VALID,23.4671,VALID,168,VALID,0.633203,
2011-11-05, 00:08:05,VALID,998.666,VALID,0,VALID,93.9511,VALID,0,VALID,23.4653,VALID,157,VALID,0.864062,
2011-11-05, 00:09:05,VALID,998.638,VALID,0,VALID,93.9359,VALID,0,VALID,23.4458,VALID,152,VALID,0.789453,
2011-11-05, 00:10:05,VALID,998.633,VALID,0,VALID,93.9359,VALID,0.104696,VALID,23.4671,VALID,115,VALID,1.26484,
2011-11-05, 00:11:05,VALID,998.616,VALID,0,VALID,93.9435,VALID,0,VALID,23.4263,VALID,120,VALID,1.23008,
2011-11-05, 00:12:05,VALID,998.608,VALID,0,VALID,93.9359,VALID,0,VALID,23.4067,VALID,117,VALID,1.375,
2011-11-05, 00:13:05,VALID,998.622,VALID,0,VALID,93.913,VALID,0,VALID,23.389,VALID,114,VALID,1.39922,
2011-11-05, 00:14:05,VALID,998.637,VALID,0,VALID,93.8901,VALID,0,VALID,23.3695,VALID,122,VALID,1.48398,
2011-11-05, 00:15:05,VALID,998.627,VALID,0,VALID,93.8901,VALID,0.104696,VALID,23.3482,VALID,118,VALID,1.55664,
2011-11-05, 00:16:05,VALID,998.607,VALID,0,VALID,93.8977,VALID,0.104696,VALID,23.3677,VALID,125,VALID,1.5082,
2011-11-05, 00:17:05,VALID,998.583,VALID,0,VALID,93.9206,VALID,0,VALID,23.3677,VALID,125,VALID,1.59687,
2011-11-05, 00:18:05,VALID,998.567,VALID,0,VALID,93.9359,VALID,0,VALID,23.3677,VALID,128,VALID,1.51133,
2011-11-05, 00:19:05,VALID,998.576,VALID,0,VALID,93.9435,VALID,0,VALID,23.3677,VALID,124,VALID,1.325,
2011-11-05, 00:20:05,VALID,998.558,VALID,0,VALID,93.9588,VALID,0,VALID,23.389,VALID,122,VALID,1.08359,
2011-11-05, 00:21:05,VALID,998.542,VALID,0,VALID,93.9588,VALID,0,VALID,23.3872,VALID,131,VALID,1.10781,
2011-11-05, 00:22:05,VALID,998.538,VALID,0,VALID,93.9511,VALID,0.104696,VALID,23.3872,VALID,137,VALID,1.1832,
2011-11-05, 00:23:05,VALID,998.543,VALID,0,VALID,93.974,VALID,0,VALID,23.428,VALID,130,VALID,1.28281,
2011-11-05, 00:24:05,VALID,998.552,VALID,0,VALID,93.9893,VALID,0,VALID,23.4458,VALID,120,VALID,1.06758,
2011-11-05, 00:25:05,VALID,998.513,VALID,0,VALID,94.0045,VALID,0,VALID,23.4653,VALID,122,VALID,1.21602,
2011-11-05, 00:26:05,VALID,998.545,VALID,0,VALID,94.0045,VALID,0.104696,VALID,23.4653,VALID,119,VALID,1.12383,
2011-11-05, 00:27:05,VALID,998.58,VALID,0,VALID,93.9893,VALID,0,VALID,23.5061,VALID,88,VALID,0.633984,
2011-11-05, 00:28:05,VALID,998.614,VALID,0,VALID,93.9969,VALID,0,VALID,23.4475,VALID,6,VALID,2.11836,
2011-11-05, 00:29:05,VALID,998.634,VALID,0,VALID,93.9817,VALID,0,VALID,23.3872,VALID,3,VALID,1.8457,
2011-11-05, 00:30:05,VALID,998.642,VALID,0,VALID,93.9664,VALID,0,VALID,23.3482,VALID,355,VALID,2.31094,
2011-11-05, 00:31:05,VALID,998.593,VALID,0,VALID,93.9511,VALID,0,VALID,23.428,VALID,36,VALID,0.536719,
2011-11-05, 00:32:05,VALID,998.61,VALID,0,VALID,93.974,VALID,0,VALID,23.4866,VALID,93,VALID,0.698047,
2011-11-05, 00:33:05,VALID,998.613,VALID,0,VALID,93.9588,VALID,0,VALID,23.4866,VALID,24,VALID,0.755469,
2011-11-05, 00:34:05,VALID,998.611,VALID,0,VALID,93.9359,VALID,0,VALID,23.4671,VALID,24,VALID,0.419922,
2011-11-05, 00:35:05,VALID,998.591,VALID,0,VALID,93.9206,VALID,0,VALID,23.428,VALID,24,VALID,0.592969,
2011-11-05, 00:36:05,VALID,998.616,VALID,0,VALID,93.8825,VALID,0,VALID,23.3677,VALID,5,VALID,0.814453,
2011-11-05, 00:37:05,VALID,998.635,VALID,0,VALID,93.8596,VALID,0,VALID,23.3677,VALID,327,VALID,1.01328,
2011-11-05, 00:38:05,VALID,998.668,VALID,0,VALID,93.8443,VALID,0,VALID,23.389,VALID,322,VALID,1.06211,
2011-11-05, 00:39:05,VALID,998.691,VALID,0,VALID,93.8443,VALID,0,VALID,23.389,VALID,304,VALID,1.07266,
2011-11-05, 00:40:05,VALID,998.73,VALID,0,VALID,93.8443,VALID,0,VALID,23.4085,VALID,298,VALID,1.00273,
2011-11-05, 00:41:05,VALID,998.727,VALID,0,VALID,93.8596,VALID,0,VALID,23.3872,VALID,290,VALID,0.992188,
2011-11-05, 00:42:05,VALID,998.718,VALID,0,VALID,93.8672,VALID,0,VALID,23.4067,VALID,310,VALID,1.1,
2011-11-05, 00:43:05,VALID,998.724,VALID,0,VALID,93.8672,VALID,0.104696,VALID,23.4263,VALID,297,VALID,1.07617,
2011-11-05, 00:44:05,VALID,998.747,VALID,0,VALID,93.8748,VALID,0,VALID,23.428,VALID,302,VALID,0.808984,
2011-11-05, 00:45:05,VALID,998.716,VALID,0,VALID,93.8672,VALID,0,VALID,23.4475,VALID,305,VALID,0.586328,
2011-11-05, 00:46:05,VALID,998.693,VALID,0,VALID,93.8748,VALID,0.104696,VALID,23.4475,VALID,305,VALID,0.623438,
2011-11-05, 00:47:05,VALID,998.69,VALID,0,VALID,93.8901,VALID,0,VALID,23.4263,VALID,305,VALID,0.410156,
2011-11-05, 00:48:05,VALID,998.731,VALID,0,VALID,93.8672,VALID,0,VALID,23.428,VALID,305,VALID,0.182812,
2011-11-05, 00:49:05,VALID,998.708,VALID,0,VALID,93.8825,VALID,0,VALID,23.4263,VALID,305,VALID,0.249609,
2011-11-05, 00:50:05,VALID,998.684,VALID,0,VALID,93.8901,VALID,0,VALID,23.4475,VALID,305,VALID,0.242969,
2011-11-05, 00:51:05,VALID,998.681,VALID,0,VALID,93.9054,VALID,0,VALID,23.4458,VALID,278,VALID,0.347656,
2011-11-05, 00:52:05,VALID,998.664,VALID,0,VALID,93.9054,VALID,0.104696,VALID,23.4263,VALID,278,VALID,0.498828,
2011-11-05, 00:53:05,VALID,998.629,VALID,0,VALID,93.9054,VALID,0.104696,VALID,23.4671,VALID,219,VALID,0.566406,
2011-11-05, 00:54:05,VALID,998.604,VALID,0,VALID,93.913,VALID,0.104696,VALID,23.4263,VALID,191,VALID,0.641406,
2011-11-05, 00:55:05,VALID,998.582,VALID,0,VALID,93.9054,VALID,0,VALID,23.4653,VALID,188,VALID,0.402344,
2011-11-05, 00:56:05,VALID,998.551,VALID,0,VALID,93.9206,VALID,0,VALID,23.4866,VALID,188,VALID,0.298828,
2011-11-05, 00:57:05,VALID,998.546,VALID,0,VALID,93.9054,VALID,0,VALID,23.4458,VALID,187,VALID,0.533594,
2011-11-05, 00:58:05,VALID,998.548,VALID,0,VALID,93.8901,VALID,0,VALID,23.4475,VALID,179,VALID,0.567578,
2011-11-05, 00:59:05,VALID,998.567,VALID,0,VALID,93.8672,VALID,0,VALID,23.4067,VALID,179,VALID,0.326562,
2011-11-05, 01:00:05,VALID,998.571,VALID,0,VALID,93.8901,VALID,0,VALID,23.428,VALID,179,VALID,0.333984,
2011-11-05, 01:01:05,VALID,998.562,VALID,0,VALID,93.8672,VALID,0,VALID,23.428,VALID,179,VALID,0.480078,
2011-11-05, 01:02:05,VALID,998.569,VALID,0,VALID,93.8825,VALID,0,VALID,23.4671,VALID,135,VALID,0.928516,
2011-11-05, 01:03:05,VALID,998.556,VALID,0,VALID,93.8748,VALID,0,VALID,23.4653,VALID,135,VALID,0.492969,
2011-11-05, 01:04:05,VALID,998.496,VALID,0,VALID,93.8977,VALID,0,VALID,23.4458,VALID,135,VALID,0.225781,
2011-11-05, 01:05:05,VALID,998.469,VALID,0,VALID,93.8748,VALID,0,VALID,23.4263,VALID,135,VALID,0.0597656,
2011-11-05, 01:06:05,VALID,998.446,VALID,0,VALID,93.8825,VALID,0.104696,VALID,23.4475,VALID,135,VALID,0,
2011-11-05, 01:07:05,VALID,998.458,VALID,0,VALID,93.8596,VALID,0.104696,VALID,23.4085,VALID,135,VALID,0,
2011-11-05, 01:08:05,VALID,998.46,VALID,0,VALID,93.8443,VALID,0,VALID,23.3482,VALID,135,VALID,0,
2011-11-05, 01:09:05,VALID,998.456,VALID,0,VALID,93.8443,VALID,0,VALID,23.3482,VALID,135,VALID,0,
2011-11-05, 01:10:05,VALID,998.438,VALID,0,VALID,93.8672,VALID,0,VALID,23.3482,VALID,135,VALID,0,
2011-11-05, 01:11:05,VALID,998.435,VALID,0,VALID,93.8596,VALID,0,VALID,23.35,VALID,135,VALID,0,
2011-11-05, 01:12:05,VALID,998.449,VALID,0,VALID,93.8443,VALID,0,VALID,23.35,VALID,135,VALID,0,
2011-11-05, 01:13:05,VALID,998.409,VALID,0,VALID,93.8596,VALID,0,VALID,23.3092,VALID,135,VALID,0,
2011-11-05, 01:14:05,VALID,998.385,VALID,0,VALID,93.8825,VALID,0,VALID,23.3092,VALID,135,VALID,0,
2011-11-05, 01:15:05,VALID,998.362,VALID,0,VALID,93.8977,VALID,0,VALID,23.3287,VALID,135,VALID,0,
2011-11-05, 01:16:05,VALID,998.357,VALID,0,VALID,93.9054,VALID,0,VALID,23.35,VALID,135,VALID,0.460156,
2011-11-05, 01:17:05,VALID,998.346,VALID,0,VALID,93.9206,VALID,0,VALID,23.3287,VALID,135,VALID,0.666797,
2011-11-05, 01:18:05,VALID,998.344,VALID,0,VALID,93.9359,VALID,0.104696,VALID,23.3092,VALID,3,VALID,0.832812,
2011-11-05, 01:19:05,VALID,998.331,VALID,0,VALID,93.9511,VALID,0,VALID,23.2897,VALID,3,VALID,1.0082,
2011-11-05, 01:20:05,VALID,998.279,VALID,0,VALID,93.9664,VALID,0,VALID,23.2312,VALID,10,VALID,1.14414,
2011-11-05, 01:21:05,VALID,998.271,VALID,0,VALID,93.9435,VALID,0,VALID,23.1921,VALID,10,VALID,1.0832,
2011-11-05, 01:22:05,VALID,998.293,VALID,0,VALID,93.9511,VALID,0,VALID,23.1531,VALID,15,VALID,1.08125,
2011-11-05, 01:23:05,VALID,998.28,VALID,0,VALID,93.9588,VALID,0,VALID,23.1159,VALID,22,VALID,1.08047,
2011-11-05, 01:24:05,VALID,998.309,VALID,0,VALID,93.9817,VALID,0,VALID,23.0964,VALID,28,VALID,1.01523,
2011-11-05, 01:25:05,VALID,998.26,VALID,0,VALID,93.974,VALID,0,VALID,23.0573,VALID,37,VALID,1.08242,
2011-11-05, 01:26:05,VALID,998.248,VALID,0,VALID,93.9969,VALID,0,VALID,23.0378,VALID,37,VALID,1.04727,
2011-11-05, 01:27:05,VALID,998.201,VALID,0,VALID,93.9969,VALID,0,VALID,23.0183,VALID,37,VALID,0.981641,
2011-11-05, 01:28:05,VALID,998.187,VALID,0,VALID,94.0198,VALID,0,VALID,23.0201,VALID,37,VALID,0.732813,
2011-11-05, 01:29:05,VALID,998.171,VALID,0,VALID,94.0198,VALID,0,VALID,22.9598,VALID,37,VALID,0.638672,
2011-11-05, 01:30:05,VALID,998.146,VALID,0,VALID,94.0427,VALID,0,VALID,22.9208,VALID,37,VALID,0.428125,
2011-11-05, 01:31:05,VALID,998.136,VALID,0,VALID,94.0503,VALID,0,VALID,22.903,VALID,37,VALID,0.046875,
2011-11-05, 01:32:05,VALID,998.1,VALID,0,VALID,94.058,VALID,0,VALID,22.8835,VALID,37,VALID,0,
2011-11-05, 01:33:05,VALID,998.068,VALID,0,VALID,94.0732,VALID,0,VALID,22.8818,VALID,37,VALID,0,
2011-11-05, 01:34:05,VALID,998.056,VALID,0,VALID,94.0885,VALID,0,VALID,22.9013,VALID,37,VALID,0,
2011-11-05, 01:35:05,VALID,998.018,VALID,0,VALID,94.1114,VALID,0,VALID,22.9615,VALID,37,VALID,0,
2011-11-05, 01:36:05,VALID,998.014,VALID,0,VALID,94.119,VALID,0,VALID,22.9403,VALID,37,VALID,0,
2011-11-05, 01:37:05,VALID,998.008,VALID,0,VALID,94.1037,VALID,0,VALID,22.9403,VALID,37,VALID,0.819141,
2011-11-05, 01:38:05,VALID,998.005,VALID,0,VALID,94.1495,VALID,0,VALID,22.9598,VALID,37,VALID,0.794922,
2011-11-05, 01:39:05,VALID,997.971,VALID,0,VALID,94.1419,VALID,0,VALID,22.919,VALID,45,VALID,0.525,
2011-11-05, 01:40:05,VALID,997.964,VALID,0,VALID,94.1648,VALID,0,VALID,22.9013,VALID,45,VALID,0.389062,
2011-11-05, 01:41:05,VALID,997.954,VALID,0,VALID,94.1648,VALID,0.104696,VALID,22.8818,VALID,63,VALID,0.571875,
2011-11-05, 01:42:05,VALID,997.941,VALID,0,VALID,94.1877,VALID,0,VALID,22.9598,VALID,68,VALID,0.523047,
2011-11-05, 01:43:05,VALID,997.94,VALID,0,VALID,94.1724,VALID,0,VALID,22.9776,VALID,68,VALID,0.290625,
2011-11-05, 01:44:05,VALID,997.95,VALID,0,VALID,94.2182,VALID,0,VALID,22.9971,VALID,68,VALID,0.129688,
2011-11-05, 01:45:05,VALID,997.939,VALID,0,VALID,94.2258,VALID,0.104696,VALID,22.9971,VALID,68,VALID,0,
2011-11-05, 01:46:05,VALID,997.962,VALID,0,VALID,94.2411,VALID,0,VALID,22.9988,VALID,68,VALID,0,
2011-11-05, 01:47:05,VALID,997.947,VALID,0,VALID,94.2411,VALID,0.104696,VALID,23.0166,VALID,68,VALID,0.263672,
2011-11-05, 01:48:05,VALID,997.944,VALID,0,VALID,94.2411,VALID,0,VALID,22.9971,VALID,68,VALID,0.241016,
2011-11-05, 01:49:05,VALID,997.933,VALID,0,VALID,94.2563,VALID,0,VALID,22.9776,VALID,68,VALID,0.363281,
2011-11-05, 01:50:05,VALID,997.935,VALID,0,VALID,94.2563,VALID,0,VALID,22.9776,VALID,68,VALID,0.296094,
2011-11-05, 01:51:05,VALID,997.95,VALID,0,VALID,94.2716,VALID,0,VALID,22.9776,VALID,68,VALID,0.252344,
2011-11-05, 01:52:05,VALID,997.973,VALID,0,VALID,94.264,VALID,0,VALID,22.9581,VALID,68,VALID,0.0261719,
2011-11-05, 01:53:05,VALID,997.941,VALID,0,VALID,94.2792,VALID,0,VALID,22.9385,VALID,68,VALID,0,
2011-11-05, 01:54:05,VALID,997.934,VALID,0,VALID,94.2945,VALID,0,VALID,22.9208,VALID,68,VALID,0,
2011-11-05, 01:55:05,VALID,997.914,VALID,0,VALID,94.2945,VALID,0,VALID,22.9403,VALID,68,VALID,0.351953,
2011-11-05, 01:56:05,VALID,997.893,VALID,0,VALID,94.2868,VALID,0,VALID,22.9581,VALID,178,VALID,0.967188,
2011-11-05, 01:57:05,VALID,997.906,VALID,0,VALID,94.2792,VALID,0,VALID,23.0751,VALID,179,VALID,0.99375,
2011-11-05, 01:58:05,VALID,997.921,VALID,0,VALID,94.2563,VALID,0,VALID,23.1531,VALID,179,VALID,0.7125,
2011-11-05, 01:59:05,VALID,997.931,VALID,0,VALID,94.264,VALID,0,VALID,23.2329,VALID,179,VALID,0.845703,
2011-11-05, 02:00:05,VALID,997.938,VALID,0,VALID,94.2487,VALID,0,VALID,23.2719,VALID,179,VALID,0.901172,
2011-11-05, 02:01:05,VALID,997.909,VALID,0,VALID,94.2487,VALID,0,VALID,23.3305,VALID,179,VALID,0.831641,
2011-11-05, 02:02:05,VALID,997.89,VALID,0,VALID,94.2563,VALID,0,VALID,23.3482,VALID,183,VALID,1,
2011-11-05, 02:03:05,VALID,997.879,VALID,0,VALID,94.2563,VALID,0,VALID,23.4263,VALID,196,VALID,1.01641,
2011-11-05, 02:04:05,VALID,997.831,VALID,0,VALID,94.2716,VALID,0,VALID,23.4866,VALID,196,VALID,0.827344,
2011-11-05, 02:05:05,VALID,997.83,VALID,0,VALID,94.2563,VALID,0,VALID,23.4848,VALID,191,VALID,0.720312,
2011-11-05, 02:06:05,VALID,997.82,VALID,0,VALID,94.2792,VALID,0,VALID,23.5061,VALID,191,VALID,0.614844,
2011-11-05, 02:07:05,VALID,997.816,VALID,0,VALID,94.264,VALID,0,VALID,23.5061,VALID,191,VALID,0.555078,
2011-11-05, 02:08:05,VALID,997.784,VALID,0,VALID,94.2868,VALID,0,VALID,23.5043,VALID,179,VALID,0.628516,
2011-11-05, 02:09:05,VALID,997.761,VALID,0,VALID,94.2945,VALID,0,VALID,23.5256,VALID,179,VALID,0.801172,
2011-11-05, 02:10:05,VALID,997.735,VALID,0,VALID,94.2792,VALID,0,VALID,23.4848,VALID,164,VALID,0.825781,
2011-11-05, 02:11:05,VALID,997.693,VALID,0,VALID,94.2945,VALID,0,VALID,23.4848,VALID,164,VALID,0.627344,
2011-11-05, 02:12:05,VALID,997.656,VALID,0,VALID,94.3097,VALID,0,VALID,23.4866,VALID,164,VALID,0.265234,
2011-11-05, 02:13:05,VALID,997.664,VALID,0,VALID,94.3326,VALID,0,VALID,23.4866,VALID,164,VALID,0.365625,
2011-11-05, 02:14:05,VALID,997.638,VALID,0,VALID,94.3174,VALID,0,VALID,23.4458,VALID,164,VALID,0.234375,
2011-11-05, 02:15:05,VALID,997.654,VALID,0,VALID,94.3479,VALID,0,VALID,23.3482,VALID,164,VALID,0.174609,
2011-11-05, 02:16:05,VALID,997.624,VALID,0,VALID,94.3555,VALID,0,VALID,23.2507,VALID,164,VALID,0.147266,
2011-11-05, 02:17:05,VALID,997.589,VALID,0,VALID,94.3708,VALID,0,VALID,23.2134,VALID,164,VALID,0.391406,
2011-11-05, 02:18:05,VALID,997.568,VALID,0,VALID,94.3784,VALID,0,VALID,23.0946,VALID,288,VALID,0.716797,
2011-11-05, 02:19:05,VALID,997.552,VALID,0,VALID,94.386,VALID,0,VALID,23.0166,VALID,288,VALID,0.478906,
2011-11-05, 02:20:05,VALID,997.548,VALID,0,VALID,94.386,VALID,0,VALID,22.9988,VALID,288,VALID,0.454688,
2011-11-05, 02:21:05,VALID,997.549,VALID,0,VALID,94.3937,VALID,0,VALID,22.9971,VALID,289,VALID,0.517578,
2011-11-05, 02:22:05,VALID,997.56,VALID,0,VALID,94.3555,VALID,0,VALID,22.9988,VALID,288,VALID,0.371094,
2011-11-05, 02:23:05,VALID,997.558,VALID,0,VALID,94.3708,VALID,0,VALID,22.9988,VALID,289,VALID,0.33125,
2011-11-05, 02:24:05,VALID,997.575,VALID,0,VALID,94.3631,VALID,0,VALID,22.9776,VALID,289,VALID,0.6,
2011-11-05, 02:25:05,VALID,997.552,VALID,0,VALID,94.386,VALID,0,VALID,22.9793,VALID,288,VALID,0.75625,
2011-11-05, 02:26:05,VALID,997.566,VALID,0,VALID,94.3479,VALID,0,VALID,22.9988,VALID,289,VALID,0.678516,
2011-11-05, 02:27:05,VALID,997.559,VALID,0,VALID,94.3631,VALID,0,VALID,22.9988,VALID,288,VALID,0.540625,
2011-11-05, 02:28:05,VALID,997.567,VALID,0,VALID,94.3479,VALID,0,VALID,22.9776,VALID,289,VALID,0.342187,
2011-11-05, 02:29:05,VALID,997.547,VALID,0,VALID,94.3631,VALID,0,VALID,22.9988,VALID,288,VALID,0.275781,
2011-11-05, 02:30:05,VALID,997.556,VALID,0,VALID,94.3555,VALID,0,VALID,22.9581,VALID,288,VALID,0.286328,
2011-11-05, 02:31:05,VALID,997.58,VALID,0,VALID,94.3708,VALID,0,VALID,22.9385,VALID,288,VALID,0.348437,
2011-11-05, 02:32:05,VALID,997.596,VALID,0,VALID,94.3631,VALID,0.104696,VALID,22.9385,VALID,288,VALID,0.288281,
2011-11-05, 02:33:05,VALID,997.615,VALID,0,VALID,94.3784,VALID,0,VALID,22.9581,VALID,289,VALID,0.199219,
2011-11-05, 02:34:05,VALID,997.641,VALID,0,VALID,94.3784,VALID,0,VALID,22.9581,VALID,288,VALID,0.0847656,
2011-11-05, 02:35:05,VALID,997.641,VALID,0,VALID,94.386,VALID,0,VALID,22.9598,VALID,288,VALID,0,
2011-11-05, 02:36:05,VALID,997.662,VALID,0,VALID,94.386,VALID,0,VALID,22.9013,VALID,288,VALID,0,
2011-11-05, 02:37:05,VALID,997.637,VALID,0,VALID,94.4013,VALID,0,VALID,22.8623,VALID,288,VALID,0.242188,
2011-11-05, 02:38:05,VALID,997.66,VALID,0,VALID,94.3708,VALID,0,VALID,22.88,VALID,288,VALID,0.310547,
2011-11-05, 02:39:05,VALID,997.625,VALID,0,VALID,94.386,VALID,0,VALID,22.919,VALID,288,VALID,0.195313,
2011-11-05, 02:40:05,VALID,997.651,VALID,0,VALID,94.3631,VALID,0,VALID,22.9385,VALID,288,VALID,0.235938,
2011-11-05, 02:41:05,VALID,997.653,VALID,0,VALID,94.3708,VALID,0.104696,VALID,22.9793,VALID,288,VALID,0.386328,
2011-11-05, 02:42:05,VALID,997.642,VALID,0,VALID,94.3631,VALID,0,VALID,22.9581,VALID,288,VALID,0.8,
2011-11-05, 02:43:05,VALID,997.627,VALID,0,VALID,94.3784,VALID,0,VALID,22.9581,VALID,113,VALID,0.825391,
2011-11-05, 02:44:05,VALID,997.67,VALID,0,VALID,94.3784,VALID,0,VALID,22.9385,VALID,109,VALID,1.17461,
2011-11-05, 02:45:05,VALID,997.636,VALID,0,VALID,94.4013,VALID,0,VALID,22.8995,VALID,100,VALID,0.944922,
2011-11-05, 02:46:05,VALID,997.654,VALID,0,VALID,94.4013,VALID,0.104696,VALID,22.9208,VALID,87,VALID,0.788672,
2011-11-05, 02:47:04,VALID,997.651,VALID,0,VALID,94.4013,VALID,0,VALID,22.88,VALID,85,VALID,0.476172,
2011-11-05, 02:48:04,VALID,997.652,VALID,0,VALID,94.4089,VALID,0,VALID,22.8605,VALID,85,VALID,0.391016,
2011-11-05, 02:49:04,VALID,997.629,VALID,0,VALID,94.4089,VALID,0,VALID,22.8605,VALID,85,VALID,0.263672,
2011-11-05, 02:50:04,VALID,997.67,VALID,0,VALID,94.4089,VALID,0,VALID,22.8427,VALID,85,VALID,0.396094,
2011-11-05, 02:51:04,VALID,997.695,VALID,0,VALID,94.4242,VALID,0,VALID,22.8427,VALID,85,VALID,0.501953,
2011-11-05, 02:52:04,VALID,997.678,VALID,0,VALID,94.4242,VALID,0,VALID,22.8427,VALID,85,VALID,0.367188,
2011-11-05, 02:53:04,VALID,997.7,VALID,0,VALID,94.4394,VALID,0,VALID,22.8427,VALID,85,VALID,0.304297,
2011-11-05, 02:54:04,VALID,997.734,VALID,0,VALID,94.4013,VALID,0,VALID,22.8623,VALID,85,VALID,0.387891,
2011-11-05, 02:55:04,VALID,997.765,VALID,0,VALID,94.4242,VALID,0,VALID,22.864,VALID,85,VALID,0.463281,
2011-11-05, 02:56:04,VALID,997.824,VALID,0,VALID,94.4318,VALID,0,VALID,22.8232,VALID,63,VALID,0.687109,
2011-11-05, 02:57:04,VALID,997.813,VALID,0,VALID,94.4318,VALID,0,VALID,22.8427,VALID,30,VALID,0.684766,
2011-11-05, 02:58:04,VALID,997.867,VALID,0,VALID,94.4242,VALID,0,VALID,22.8232,VALID,30,VALID,0.842578,
2011-11-05, 02:59:04,VALID,997.868,VALID,0,VALID,94.4242,VALID,0,VALID,22.8037,VALID,24,VALID,0.952344,
2011-11-05, 03:00:04,VALID,997.867,VALID,0,VALID,94.4471,VALID,0,VALID,22.8037,VALID,20,VALID,0.850781,
2011-11-05, 03:01:04,VALID,997.883,VALID,0,VALID,94.4394,VALID,0,VALID,22.825,VALID,14,VALID,0.875,
2011-11-05, 03:02:04,VALID,997.878,VALID,0,VALID,94.4394,VALID,0,VALID,22.8445,VALID,14,VALID,0.5625,
2011-11-05, 03:03:04,VALID,997.916,VALID,0,VALID,94.4165,VALID,0,VALID,22.8427,VALID,14,VALID,0.546484,
2011-11-05, 03:04:04,VALID,997.927,VALID,0,VALID,94.4394,VALID,0,VALID,22.8835,VALID,14,VALID,0.424219,
2011-11-05, 03:05:04,VALID,997.934,VALID,0,VALID,94.4318,VALID,0,VALID,22.8835,VALID,14,VALID,0.274609,
2011-11-05, 03:06:04,VALID,997.956,VALID,0,VALID,94.4318,VALID,0,VALID,22.903,VALID,14,VALID,0.58125,
2011-11-05, 03:07:04,VALID,997.915,VALID,0,VALID,94.4242,VALID,0,VALID,22.9013,VALID,14,VALID,0.220703,
2011-11-05, 03:08:04,VALID,997.902,VALID,0,VALID,94.4471,VALID,0,VALID,22.8818,VALID,14,VALID,0,
2011-11-05, 03:09:04,VALID,997.916,VALID,0,VALID,94.4394,VALID,0,VALID,22.8818,VALID,14,VALID,0,
2011-11-05, 03:10:04,VALID,997.914,VALID,0,VALID,94.4471,VALID,0,VALID,22.8818,VALID,14,VALID,0,
2011-11-05, 03:11:04,VALID,997.933,VALID,0,VALID,94.4471,VALID,0,VALID,22.8623,VALID,14,VALID,0.0871094,
2011-11-05, 03:12:04,VALID,997.907,VALID,0,VALID,94.4471,VALID,0,VALID,22.8623,VALID,14,VALID,0,
2011-11-05, 03:13:04,VALID,997.907,VALID,0,VALID,94.4318,VALID,0,VALID,22.8605,VALID,14,VALID,0,
2011-11-05, 03:14:04,VALID,997.914,VALID,0,VALID,94.4547,VALID,0,VALID,22.841,VALID,14,VALID,0.0714844,
2011-11-05, 03:15:04,VALID,997.926,VALID,0,VALID,94.4547,VALID,0,VALID,22.8623,VALID,14,VALID,0,
2011-11-05, 03:16:04,VALID,997.935,VALID,0,VALID,94.4471,VALID,0,VALID,22.841,VALID,14,VALID,0,
2011-11-05, 03:17:04,VALID,997.963,VALID,0,VALID,94.4623,VALID,0,VALID,22.8427,VALID,14,VALID,0,
2011-11-05, 03:18:04,VALID,997.981,VALID,0,VALID,94.4547,VALID,0,VALID,22.8215,VALID,14,VALID,0,
2011-11-05, 03:19:04,VALID,997.983,VALID,0,VALID,94.4547,VALID,0,VALID,22.841,VALID,14,VALID,0,
2011-11-05, 03:20:04,VALID,997.996,VALID,0,VALID,94.4547,VALID,0,VALID,22.9013,VALID,14,VALID,0,
2011-11-05, 03:21:04,VALID,998.015,VALID,0,VALID,94.4471,VALID,0,VALID,22.9013,VALID,14,VALID,0,
2011-11-05, 03:22:04,VALID,997.997,VALID,0,VALID,94.4471,VALID,0,VALID,22.9208,VALID,14,VALID,0,
2011-11-05, 03:23:04,VALID,997.992,VALID,0,VALID,94.4394,VALID,0,VALID,22.9403,VALID,14,VALID,0,
2011-11-05, 03:24:04,VALID,998.036,VALID,0,VALID,94.4242,VALID,0,VALID,22.9403,VALID,14,VALID,0,
2011-11-05, 03:25:04,VALID,998.033,VALID,0,VALID,94.4547,VALID,0,VALID,22.9598,VALID,14,VALID,0,
2011-11-05, 03:26:04,VALID,998.043,VALID,0,VALID,94.4471,VALID,0,VALID,22.9385,VALID,14,VALID,0,
2011-11-05, 03:27:04,VALID,998.03,VALID,0,VALID,94.4547,VALID,0,VALID,22.9581,VALID,14,VALID,0,
2011-11-05, 03:28:04,VALID,998.005,VALID,0,VALID,94.4471,VALID,0,VALID,22.9581,VALID,14,VALID,0,
2011-11-05, 03:29:04,VALID,997.998,VALID,0,VALID,94.4623,VALID,0,VALID,22.9776,VALID,14,VALID,0,
2011-11-05, 03:30:04,VALID,998.002,VALID,0,VALID,94.4471,VALID,0,VALID,23.0183,VALID,14,VALID,0,
2011-11-05, 03:31:04,VALID,997.995,VALID,0,VALID,94.4394,VALID,0,VALID,23.0556,VALID,14,VALID,0,
2011-11-05, 03:32:04,VALID,997.974,VALID,0,VALID,94.4318,VALID,0,VALID,23.0751,VALID,14,VALID,0,
2011-11-05, 03:33:04,VALID,997.973,VALID,0,VALID,94.4318,VALID,0.104696,VALID,23.1354,VALID,323,VALID,0.692969,
2011-11-05, 03:34:04,VALID,997.961,VALID,0,VALID,94.4165,VALID,0,VALID,23.1549,VALID,314,VALID,0.375781,
2011-11-05, 03:35:04,VALID,997.993,VALID,0,VALID,94.4318,VALID,0,VALID,23.1336,VALID,314,VALID,0.0957031,
2011-11-05, 03:36:04,VALID,997.993,VALID,0,VALID,94.4394,VALID,0,VALID,23.1549,VALID,314,VALID,0,
2011-11-05, 03:37:04,VALID,997.984,VALID,0,VALID,94.4165,VALID,0,VALID,23.1354,VALID,314,VALID,0,
2011-11-05, 03:38:04,VALID,997.981,VALID,0,VALID,94.4318,VALID,0.104696,VALID,23.1336,VALID,314,VALID,0,
2011-11-05, 03:39:04,VALID,997.98,VALID,0,VALID,94.4471,VALID,0,VALID,23.1531,VALID,314,VALID,0.0519531,
2011-11-05, 03:40:04,VALID,997.964,VALID,0,VALID,94.4089,VALID,0.104696,VALID,23.1726,VALID,314,VALID,0.515625,
2011-11-05, 03:41:04,VALID,997.966,VALID,0,VALID,94.4165,VALID,0,VALID,23.1921,VALID,193,VALID,0.703125,
2011-11-05, 03:42:04,VALID,997.94,VALID,0,VALID,94.4165,VALID,0,VALID,23.2719,VALID,185,VALID,1.20664,
2011-11-05, 03:43:04,VALID,997.96,VALID,0,VALID,94.3937,VALID,0,VALID,23.3092,VALID,175,VALID,1.11875,
2011-11-05, 03:44:04,VALID,997.968,VALID,0,VALID,94.386,VALID,0,VALID,23.3482,VALID,172,VALID,1.49375,
2011-11-05, 03:45:04,VALID,997.966,VALID,0,VALID,94.3937,VALID,0,VALID,23.3872,VALID,171,VALID,1.25937,
2011-11-05, 03:46:04,VALID,997.929,VALID,0,VALID,94.386,VALID,0,VALID,23.4475,VALID,170,VALID,1.06406,
2011-11-05, 03:47:04,VALID,997.919,VALID,0,VALID,94.4089,VALID,0,VALID,23.4475,VALID,163,VALID,1.20313,